This demonstration page uses our WeatherBlox Daily Observations layout. Learn more.

Hourly Observations for January 23, 2018

Temp ( °F °C ) Dew Point ( °F °C ) Humidity (%) Winds ( mph kmh ) Pressure ( in mb ) Visibility ( mi km ) Precip ( " mm )
12:15 am 00:15 Clear 23 -4.8 19 -7.3 83 83 NW 9 15 30.18 1022 10 16.0934 0 0
12:35 am 00:35 Clear 23 -5.2 19 -7.5 84 84 NW 7 11 30.18 1022 10 16.0934 0 0
12:55 am 00:55 Clear 22 -5.6 18 -7.9 84 84 NW 9 15 30.18 1022 10 16.0934 0 0
1:15 am 01:15 Clear 23 -5.1 18 -7.7 82 82 NW 8 13 30.18 1022 10 16.0934 0 0
1:35 am 01:35 Clear 22 -5.6 18 -8 83 83 NW 7 11 30.21 1023 10 16.0934 0 0
1:55 am 01:55 Clear 22 -5.5 18 -8 83 83 WNW 8 13 30.21 1023 10 16.0934 0 0
2:15 am 02:15 Clear 21 -6 17 -8.5 83 83 WNW 9 15 30.24 1024 10 16.0934 0 0
2:35 am 02:35 Clear 21 -5.9 17 -8.5 82 82 W 6 9 30.24 1024 10 16.0934 0 0
2:55 am 02:55 Clear 21 -6.2 16 -8.7 83 83 WNW 7 11 30.24 1024 10 16.0934 0 0
3:15 am 03:15 Clear 21 -6 16 -8.7 81 81 WNW 8 13 30.27 1025 10 16.0934 0 0
3:35 am 03:35 Clear 22 -5.7 17 -8.6 80 80 WNW 7 11 30.27 1025 10 16.0934 0 0
3:55 am 03:55 Clear 21 -6 16 -8.7 81 81 NW 8 13 30.27 1025 10 16.0934 0 0
4:15 am 04:15 Clear 21 -6.1 16 -8.8 81 81 NW 7 11 30.27 1025 10 16.0934 0 0
4:35 am 04:35 Clear 20 -6.4 16 -9 82 82 WNW 7 11 30.27 1025 10 16.0934 0 0
4:55 am 04:55 Clear 21 -6.2 16 -9 81 81 WNW 5 7 30.27 1025 10 16.0934 0 0
5:15 am 05:15 Clear 21 -6.2 16 -9 81 81 WNW 7 11 30.27 1025 10 16.0934 0 0
5:35 am 05:35 Clear 20 -6.5 15 -9.2 81 81 WNW 6 9 30.27 1025 10 16.0934 0 0
5:55 am 05:55 Clear 20 -6.7 15 -9.5 81 81 NW 5 7 30.27 1025 10 16.0934 0 0
6:15 am 06:15 Clear 19 -7 15 -9.6 82 82 WNW 7 11 30.27 1025 10 16.0934 0 0
6:35 am 06:35 Clear 19 -7.4 15 -9.7 84 84 NNW 6 9 30.27 1025 10 16.0934 0 0
6:55 am 06:55 Clear 18 -7.6 14 -10 83 83 WNW 7 11 30.3 1026 10 16.0934 0 0
7:15 am 07:15 Clear 19 -7.5 14 -10 83 83 WNW 7 11 30.3 1026 10 16.0934 0 0
7:35 am 07:35 Clear 18 -7.7 14 -9.9 84 84 NW 6 9 30.3 1026 10 16.0934 0 0
7:55 am 07:55 Sunny 18 -8 13 -10.3 84 84 WNW 5 7 30.3 1026 10 16.0934 0 0
8:15 am 08:15 Sunny 18 -7.7 14 -10.1 83 83 WNW 6 9 30.3 1026 10 16.0934 0 0
8:35 am 08:35 Sunny 19 -7.3 14 -10 81 81 W 6 9 30.3 1026 10 16.0934 0 0
8:55 am 08:55 Sunny 20 -6.6 15 -9.2 82 82 W 6 9 30.3 1026 10 16.0934 0 0
9:15 am 09:15 Sunny 21 -6 16 -8.8 81 81 W 6 9 30.3 1026 10 16.0934 0 0
9:35 am 09:35 Sunny 22 -5.5 17 -8.3 81 81 WNW 6 9 30.33 1027 10 16.0934 0 0
9:55 am 09:55 Partly Cloudy 24 -4.7 18 -7.6 80 80 WNW 5 7 30.3 1026 10 16.0934 0 0
10:15 am 10:15 Partly Cloudy 25 -4 20 -6.8 81 81 WNW 6 9 30.3 1026 10 16.0934 0 0
10:35 am 10:35 Partly Cloudy 26 -3.1 22 -5.7 82 82 NW 6 9 30.3 1026 10 16.0934 0 0
10:55 am 10:55 Partly Cloudy 28 -2.4 22 -5.5 80 80 NW 8 13 30.33 1027 10 16.0934 0 0
11:15 am 11:15 Partly Cloudy 29 -1.5 24 -4.7 79 79 NW 8 13 30.3 1026 10 16.0934 0 0
11:35 am 11:35 Mostly Cloudy 31 -0.8 25 -4 79 79 WNW 7 11 30.3 1026 10 16.0934 0 0
11:55 am 11:55 Mostly Cloudy 32 -0.2 25 -3.8 77 77 WNW 6 9 30.3 1026 10 16.0934 0 0
12:15 pm 12:15 Cloudy 32 0.2 27 -2.8 81 81 Calm 30.3 1026 10 16.0934 0 0
12:35 pm 12:35 Cloudy 33 0.6 28 -2.5 80 80 WNW 9 15 30.3 1026 10 16.0934 0 0
12:55 pm 12:55 Cloudy 33 0.8 28 -2.2 81 81 NW 12 19 30.27 1025 10 16.0934 0 0
1:15 pm 13:15 Mostly Cloudy 35 1.5 29 -1.5 81 81 NW 9 15 30.24 1024 10 16.0934 0 0
1:35 pm 13:35 Mostly Cloudy 35 1.5 29 -1.4 81 81 WNW 10 17 30.24 1024 10 16.0934 0 0
1:55 pm 13:55 Cloudy 35 1.5 30 -1 84 84 WNW 8 13 30.24 1024 10 16.0934 0 0
2:15 pm 14:15 Cloudy 35 1.5 30 -1 84 84 WNW 10 17 30.24 1024 10 16.0934 0 0
2:35 pm 14:35 Cloudy 35 1.5 31 -0.6 86 86 WNW 7 11 30.24 1024 10 16.0934 0 0
2:55 pm 14:55 Cloudy 36 2 31 -0.5 84 84 WNW 8 13 30.24 1024 10 16.0934 0 0
3:15 pm 15:15 Cloudy 37 2.9 32 0 81 81 W 9 15 30.24 1024 10 16.0934 0 0
3:35 pm 15:35 Mostly Cloudy 37 2.8 32 0 82 82 WNW 9 15 30.27 1025 10 16.0934 0 0
3:55 pm 15:55 Partly Cloudy 37 3 32 -0.2 80 80 WNW 12 19 30.27 1025 10 16.0934 0 0
4:15 pm 16:15 Sunny 37 2.9 32 -0.1 81 81 WNW 9 15 30.27 1025 10 16.0934 0 0
4:35 pm 16:35 Sunny 37 2.7 32 0 83 83 W 9 15 30.27 1025 10 16.0934 0 0
4:55 pm 16:55 Sunny 36 2.4 32 0 84 84 WNW 6 9 30.27 1025 10 16.0934 0 0
5:15 pm 17:15 Sunny 36 2.1 32 0 86 86 W 8 13 30.27 1025 10 16.0934 0 0
5:35 pm 17:35 Sunny 35 1.5 31 -0.5 87 87 W 8 13 30.27 1025 10 16.0934 0 0
5:55 pm 17:55 Clear 34 1 31 -0.5 90 90 W 8 13 30.33 1027 10 16.0934 0 0
6:15 pm 18:15 Clear 33 0.7 31 -0.7 90 90 W 8 13 30.33 1027 10 16.0934 0 0
6:35 pm 18:35 Clear 32 0.1 30 -1.2 91 91 W 9 15 30.33 1027 10 16.0934 0 0
6:55 pm 18:55 Clear 32 0 29 -1.5 90 90 W 8 13 30.33 1027 10 16.0934 0 0
7:15 pm 19:15 Clear 32 -0.2 28 -2 88 88 W 10 17 30.33 1027 10 16.0934 0 0
7:35 pm 19:35 Clear 32 0 28 -2.1 86 86 W 10 17 30.33 1027 10 16.0934 0 0
7:55 pm 19:55 Clear 32 -0.1 28 -2.5 84 84 W 9 15 30.33 1027 10 16.0934 0 0
8:15 pm 20:15 Clear 31 -0.4 27 -2.7 85 85 W 10 17 30.33 1027 10 16.0934 0 0
8:35 pm 20:35 Clear 31 -0.8 26 -3.1 85 85 W 10 17 30.33 1027 10 16.0934 0 0
8:55 pm 20:55 Clear 30 -1.2 26 -3.2 86 86 W 9 15 30.33 1027 10 16.0934 0 0
9:15 pm 21:15 Clear 30 -1.1 26 -3.5 84 84 W 9 15 30.36 1028 10 16.0934 0 0
9:35 pm 21:35 Clear 30 -1 25 -3.7 82 82 W 10 17 30.36 1028 10 16.0934 0 0
9:55 pm 21:55 Clear 30 -1.3 25 -4 82 82 W 10 17 30.39 1029 10 16.0934 0 0
10:15 pm 22:15 Clear 29 -1.7 24 -4.2 83 83 W 8 13 30.39 1029 10 16.0934 0 0
10:35 pm 22:35 Clear 28 -2.5 24 -4.7 85 85 W 7 11 30.39 1029 10 16.0934 0 0
10:55 pm 22:55 Clear 28 -2 24 -4.6 83 83 W 8 13 30.39 1029 10 16.0934 0 0
11:15 pm 23:15 Clear 27 -2.6 23 -5 84 84 W 9 15 30.39 1029 10 16.0934 0 0
11:35 pm 23:35 Clear 27 -3 22 -5.5 83 83 NW 6 9 30.39 1029 10 16.0934 0 0
11:55 pm 23:55 Clear 26 -3.2 22 -5.3 86 86 WNW 8 13 30.39 1029 10 16.0934 0 0

Powered by AerisWeather